Starlink 11145

operational
NORAD ID: 59945 Int'l Des: 2024-107 Owner: SPXS Country: US Constellation: starlink
LEOCIRCULAR

Über Starlink 11145

Beschreibung wird geladen...

Live-Position

3D-Globus wird geladen...

Nächste Überflüge

Höhenverlauf

Altitude vs Time

uPlot chart will show altitude changes over time

Zweizeiliger Elementsatz

1 59945U 24107A 25353.98791308 -.00000373 00000-0 17818-5 0 9993
2 59945 53.1585 284.4785 0001130 74.0307 286.0835 15.69711541 89622
Epoch: 19. Dez. 2025 • Age: 20 hours

Aktueller Status

Höhe 362.6 km
Geschwindigkeit 7.70 km/s
Subsatellitenpunkt 38.95°N, 31.81°E
Startdatum 5. Juni 2024
Alter 1.5 years
Typ internet

Technische Details

Klassifizierung Payload
Masse 960.00 kg
Trockenmasse 910.00 kg
Gesamtmasse 960.00 kg
Länge 0.30 m
Durchmesser 4.10 m
Spannweite 29.00 m
Form Box + pan
Hersteller SPXS
Bus-Typ Starlink V2MD
Phasenstatus In Orbit
Besitzer/Staat SPXS/US

Große Konstellationen

Loading constellations...